CAPE
18 17 15 6 12 9 4 0 0 1 3 13 13 19 27 32 13 9 43 18 28 7 28 0 2 0 0 12 0 14 3 0 5 51 66 22 105 81 51 3 79 54 75 64 59 13 35
76 27 2 3 6 12 4 0 1 0 5 7 10 17 27 34 18 8 18 25 29 3 24 2 0 0 2 4 0 5 19 1 50 56 80 52 49 79 9 7 50 69 43 74 13 2 15
89 89 33 13 6 4 12 2 2 0 7 7 8 17 19 29 15 0 0 24 16 10 7 0 0 0 7 0 0 4 12 1 91 112 127 99 105 112 67 64 8 64 99 81 49 46 7
115 85 80 13 3 4 9 2 3 1 9 6 10 14 24 22 6 0 0 0 4 20 1 0 0 0 15 0 0 2 6 0 45 250 188 108 135 75 45 39 25 97 54 0 3 48 39
112 74 98 15 9 2 9 20 14 3 7 6 8 12 17 0 0 0 0 0 5 1 0 0 0 25 13 0 4 4 0 32 81 91 203 102 100 78 37 35 40 49 0 0 34 16 0
92 104 72 43 16 2 5 18 18 0 6 6 7 10 16 0 0 0 0 0 0 0 0 0 3 12 13 6 15 8 0 0 28 69 111 35 24 5 27 68 5 0 0 0 0 0 0
94 93 44 5 1 7 4 7 0 0 5 5 6 6 4 0 0 0 0 0 0 0 0 0 0 11 23 1 30 26 1 0 57 12 19 13 0 0 0 0 13 0 0 0 0 86 56
109 75 73 11 3 13 8 8 0 0 1 4 0 5 0 0 12 0 0 0 0 0 0 0 1 6 4 0 32 44 2 18 21 28 0 0 0 13 0 0 8 0 0 0 28 93 45
36 71 65 38 3 1 8 4 1 0 0 3 0 0 0 13 0 0 0 0 0 0 0 7 0 7 6 3 74 33 41 25 13 5 0 2 0 3 4 37 3 0 0 0 1 21 19
93 84 51 56 0 0 16 5 3 4 0 0 0 0 0 2 0 2 0 0 0 0 0 3 2 0 8 0 2 28 86 48 1 12 1 7 13 2 0 4 1 4 5 32 9 30 0
88 100 43 49 0 2 13 2 10 5 0 0 0 0 0 0 2 0 0 0 0 0 0 3 1 0 8 0 0 0 35 51 1 0 0 3 0 0 18 2 23 17 0 20 54 57 16
145 56 28 61 0 4 16 9 13 7 0 0 0 0 0 0 0 0 0 0 0 0 0 0 14 10 0 0 0 0 9 0 10 1 6 22 11 13 82 46 2 2 28 13 27 2 0
79 53 61 71 0 2 9 4 24 0 0 0 0 0 0 2 0 0 0 0 0 0 0 0 1 4 3 0 2 7 2 0 11 13 20 54 18 12 21 17 21 19 10 0 0 0 0
11 54 38 53 0 3 22 9 7 0 0 0 0 1 0 2 0 0 0 0 0 0 0 0 6 1 7 0 12 12 2 7 32 55 0 6 3 0 4 24 14 12 0 0 0 0 0
7 39 29 50 20 4 13 16 7 1 0 0 3 1 5 0 0 0 0 0 0 0 0 0 0 11 1 1 2 23 8 28 58 13 38 5 0 0 8 12 13 0 0 1 0 0 0
45 7 21 47 38 3 14 25 8 0 0 0 0 0 0 0 0 0 0 0 0 0 0 13 6 15 0 0 4 4 6 2 15 4 0 0 0 0 8 17 9 9 3 0 0 0 0
63 1 32 63 56 25 13 21 20 0 0 0 0 0 0 0 2 0 0 0 0 0 0 3 0 0 0 0 1 3 0 0 2 0 0 1 0 0 13 16 0 3 1 0 0 0 0
46 1 28 41 60 30 15 8 20 0 0 0 0 0 1 3 0 0 0 0 0 0 0 0 1 11 0 0 0 0 0 0 5 0 0 0 0 0 0 1 2 6 15 2 0 0 0
8 0 8 25 69 32 8 18 54 0 0 0 0 0 0 0 0 0 0 0 0 0 0 0 1 0 6 3 0 2 0 0 0 0 0 0 0 0 0 0 0 0 17 33 4 0 0
12 0 11 4 49 46 17 56 2 0 0 0 0 0 0 0 0 0 0 0 0 0 0 0 0 0 0 5 5 0 0 0 0 0 0 0 0 0 0 0 0 0 0 2 4 0 0
26 0 1 4 11 41 8 45 0 1 0 0 0 0 0 0 0 0 0 0 0 0 0 0 0 0 3 8 7 9 0 0 0 0 0 0 0 0 0 0 0 0 0 0 0 0 0
23 18 1 11 33 18 14 77 0 1 0 0 0 0 0 0 0 0 0 0 0 0 0 0 0 0 0 2 1 8 0 0 0 0 0 0 0 0 0 0 0 0 0 0 0 0 0
30 45 5 4 80 44 74 34 0 0 0 0 0 0 0 0 0 0 0 0 0 0 0 0 0 0 0 0 0 0 5 2 6 5 0 0 0 0 0 0 0 0 0 0 0 0 0
39 14 27 9 74 52 76 2 0 0 0 0 0 0 0 0 0 0 0 0 0 0 0 0 0 0 0 0 0 0 0 0 0 0 6 15 0 0 0 0 0 0 0 0 0 0 0
20 0 1 42 3 41 7 0 0 0 0 0 0 0 0 0 0 0 0 0 0 0 0 0 0 0 0 0 0 0 0 0 0 0 1 16 6 0 0 0 0 0 0 0 0 0 0
18 1 2 19 46 10 5 0 0 0 0 0 0 0 0 0 0 0 0 0 0 0 0 0 0 0 0 7 0 0 0 0 0 0 0 0 2 6 0 0 0 0 0 0 0 0 0
7 0 1 11 40 0 0 0 0 0 0 0 0 0 0 0 0 0 0 0 0 0 0 0 0 0 1 0 0 0 0 1 0 0 0 0 0 0 0 0 0 0 0 0 0 0 0
0 0 1 0 40 9 0 0 0 0 0 0 0 0 0 0 0 0 0 0 0 0 0 0 0 0 0 0 0 0 0 0 0 0 0 0 0 0 0 0 0 0 0 0 0 0 0
0 0 1 11 11 2 0 0 0 0 0 0 0 0 0 0 0 0 0 0 0 0 0 0 0 0 0 0 0 0 0 0 0 0 0 0 3 8 0 0 0 0 0 0 0 0 0
CIN
-1 -3 -1 0 0 0 0 0 0 0 0 0 0 0 0 -1 0 0 0 0 0 0 0 0 0 0 0 -3 -1 -6 0 0 -6 -17 -1 -1 -9 -17 -2 -29 -4 -4 -7 -59 -31 -12 -73
0 -1 0 0 0 0 0 0 0 0 0 0 0 0 0 0 -1 0 0 0 0 0 0 0 0 0 -5 -1 0 -13 -2 0 -2 -6 -2 -6 -32 -19 -5 -7 -5 -12 -5 -27 -15 -30 -48
0 0 -7 0 -2 0 0 -2 0 0 0 0 0 0 0 -2 -1 0 0 0 0 0 0 0 0 0 0 0 0 -18 -16 -4 -4 -8 -2 -3 -11 -12 -8 -9 -6 -2 -19 -27 -6 -19 -6
-20 0 -2 -2 -1 -1 0 0 0 0 0 0 0 0 0 -1 0 0 0 0 0 0 0 0 0 0 -1 0 0 0 -8 0 -11 -10 -16 -12 -33 -41 -14 -59 -12 -8 -7 0 -3 -9 -38
-26 -10 0 -2 0 0 0 0 0 -1 0 0 0 0 -1 0 0 0 0 0 0 0 0 0 -1 -3 -2 -1 -14 -1 0 -2 -21 -8 -6 -3 -16 -15 -17 -6 -4 -20 0 0 -2 -6 0
-31 -25 0 0 -2 0 0 0 0 0 0 0 0 0 -1 0 0 0 0 0 0 0 0 0 -1 -1 -1 0 -46 -50 0 0 -1 -1 -5 -2 -3 -1 -3 -1 -1 0 0 0 0 0 0
-32 -32 -27 -12 0 0 0 0 0 0 0 0 0 0 0 0 0 0 0 0 0 0 0 0 0 0 -5 -4 -43 -29 -3 0 -9 -4 -1 -2 0 0 0 0 -9 0 0 0 0 -8 -13
-54 -36 -30 -1 0 -5 0 0 0 0 0 0 0 0 0 0 -1 0 0 0 0 0 0 0 -1 -3 -8 0 -35 -16 -75 -20 -31 -3 0 0 0 -5 0 0 -9 -1 0 0 -12 -69 -15
-112 -48 -27 -5 -6 0 0 -2 -2 0 0 0 0 0 0 -3 0 0 0 0 0 0 0 -1 0 -2 0 -2 -30 -48 -32 -45 -62 -5 0 0 0 -41 -3 -4 -3 0 0 0 -3 -10 -8
-35 -52 -38 -35 0 0 0 -8 -2 0 0 0 0 0 0 -1 0 -1 0 0 0 0 0 -1 0 0 -1 -5 0 -74 -21 -31 -59 0 -1 -8 -18 -73 0 -3 -4 -15 -34 -7 -7 -10 0
-35 -35 -28 -40 -1 -1 0 -2 0 0 0 0 0 0 0 0 -9 0 0 0 0 0 0 0 -1 0 -1 0 0 0 -6 -5 0 0 0 -1 -2 -1 -41 -37 -11 -34 -1 -3 -17 -26 -2
-10 -35 -63 -49 0 0 0 0 0 -2 0 0 0 0 0 0 0 0 0 0 0 0 0 0 -3 -2 0 0 0 0 0 0 -1 -11 -23 -1 -21 -28 -4 -9 -1 -15 -4 -7 -5 -1 0
-16 -19 -31 -59 0 0 0 0 0 0 0 0 0 0 0 0 0 0 0 0 0 0 0 0 0 -4 -1 0 0 -7 0 0 0 -6 -9 -19 -1 -1 -13 -6 -16 -11 -6 0 0 0 0
-10 -9 -53 -57 0 0 0 -11 0 0 0 0 0 0 0 0 0 0 0 0 0 0 0 0 -1 0 0 -1 -1 -2 -5 -26 -13 -9 -1 -2 -8 0 -11 -10 -9 -6 0 0 0 0 0
0 -5 -13 -22 -18 0 0 -1 -1 0 0 0 0 -1 -1 0 0 0 0 0 0 0 0 0 0 0 -1 -1 -3 -1 -28 -10 -7 -21 -14 -3 0 0 -3 -10 -26 0 0 -2 0 0 0
0 -41 -13 -22 -3 0 0 0 0 0 0 0 0 0 0 0 0 0 0 0 0 0 0 -1 0 -1 0 -1 -1 -3 -2 -5 -18 -10 0 0 0 0 -12 -37 -23 -12 -4 -7 0 0 0
0 0 -22 -7 0 0 0 -2 -12 0 0 0 0 0 0 0 0 0 0 0 0 0 0 0 0 0 0 0 -1 -1 0 0 -4 0 0 -2 0 0 -3 -8 -7 -1 -1 0 0 0 0
0 0 -3 0 0 0 0 -11 -10 0 0 0 0 0 0 0 0 0 0 0 0 0 0 0 -3 -4 0 0 0 0 0 0 -4 0 0 0 0 0 0 -1 -12 -16 -8 -2 0 0 0
0 0 0 0 0 0 0 0 -2 0 0 0 0 0 0 0 0 0 0 0 0 0 0 -1 -1 -3 -2 0 0 -1 0 0 0 0 0 0 0 0 0 0 0 0 -23 -24 -6 0 0
-1 0 0 -5 0 0 0 -1 -16 0 0 0 0 0 0 0 0 0 0 0 0 0 0 0 0 0 0 -1 -4 0 0 0 0 0 0 0 0 0 0 0 0 0 0 -23 -2 0 0
0 0 0 -1 0 -4 0 -1 0 0 0 0 0 0 0 0 0 0 0 0 0 0 0 0 0 0 -2 -3 -3 -1 0 0 0 0 0 0 0 0 0 0 0 0 0 0 0 0 0
0 0 0 -3 0 -3 0 0 0 0 0 0 0 0 0 0 0 0 0 0 0 0 0 0 0 0 0 -2 -5 0 0 -2 0 0 0 0 0 0 0 0 0 0 0 0 0 0 0
0 0 0 -1 0 0 -2 -4 0 0 0 0 0 0 0 0 0 0 0 0 0 0 0 0 0 0 -1 0 0 -1 -6 -6 -5 -4 0 0 0 0 0 0 0 0 0 0 0 0 0
0 0 -3 0 0 0 -3 -3 0 0 0 0 0 0 0 0 0 0 0 0 0 0 0 0 0 0 0 0 0 0 0 0 0 -1 -7 -2 0 0 0 0 0 0 0 0 0 0 0
0 0 0 0 -3 0 0 0 0 0 0 0 0 0 0 0 0 0 0 0 0 0 0 0 0 0 0 0 0 0 0 0 0 0 -3 -4 -2 0 0 0 0 0 0 0 0 0 0
-4 0 0 0 0 0 -1 0 0 0 0 0 0 0 0 0 0 0 0 0 0 0 0 0 0 0 0 -8 0 0 0 0 0 0 0 0 -1 -1 0 0 0 0 0 0 0 0 0
-8 0 0 0 0 0 0 0 0 0 0 0 0 0 0 0 0 0 0 0 0 0 0 0 0 0 -4 0 0 0 0 -3 0 0 0 0 0 0 0 0 0 0 0 0 0 0 0
0 0 0 0 0 -1 0 0 0 0 0 0 0 0 0 0 0 0 0 0 0 0 0 0 0 0 0 0 0 0 0 0 0 0 0 0 0 0 0 0 0 0 0 0 0 0 0
0 0 0 0 0 -5 0 0 0 0 0 0 0 0 0 0 0 0 0 0 0 0 0 0 0 0 0 0 0 0 0 0 0 0 0 0 -2 -7 0 0 0 0 0 0 0 0 0
Wind_Speed
nan nan nan nan nan nan nan nan nan nan nan nan nan nan nan nan nan nan nan nan nan nan nan nan nan nan nan nan nan nan nan nan nan nan nan nan 44 nan nan nan nan nan nan nan nan nan nan
nan nan nan nan nan nan nan nan nan nan nan nan nan nan nan nan nan nan nan nan nan nan nan nan nan nan nan nan nan nan nan nan nan nan nan nan nan nan nan nan nan nan nan nan nan nan nan
nan nan nan nan nan nan nan nan nan nan nan nan nan nan nan nan nan nan nan nan nan nan nan nan nan nan nan nan nan nan nan nan nan 19 35 nan 51 41 nan nan nan nan nan nan nan nan nan
18 nan nan nan nan nan nan nan nan nan nan nan nan nan nan nan nan nan nan nan nan nan nan nan nan nan nan nan nan nan nan nan nan 34 52 44 55 nan nan nan nan nan nan nan nan nan nan
19 nan nan nan nan nan nan nan nan nan nan nan nan nan nan nan nan nan nan nan nan nan nan nan nan nan nan nan nan nan nan nan nan nan 44 45 47 nan nan nan nan nan nan nan nan nan nan
nan 19 nan nan nan nan nan nan nan nan nan nan nan nan nan nan nan nan nan nan nan nan nan nan nan nan nan nan nan nan nan nan nan nan 47 nan nan nan nan nan nan nan nan nan nan nan nan
nan nan nan nan nan nan nan nan nan nan nan nan nan nan nan nan nan nan nan nan nan nan nan nan nan nan nan nan nan nan nan nan nan nan nan nan nan nan nan nan nan nan nan nan nan nan nan
36 nan nan nan nan nan nan nan nan nan nan nan nan nan nan nan nan nan nan nan nan nan nan nan nan nan nan nan nan nan nan nan nan nan nan nan nan nan nan nan nan nan nan nan nan nan nan
nan nan nan nan nan nan nan nan nan nan nan nan nan nan nan nan nan nan nan nan nan nan nan nan nan nan nan nan nan nan nan nan nan nan nan nan nan nan nan nan nan nan nan nan nan nan nan
nan nan nan nan nan nan nan nan nan nan nan nan nan nan nan nan nan nan nan nan nan nan nan nan nan nan nan nan nan nan nan nan nan nan nan nan nan nan nan nan nan nan nan nan nan nan nan
nan 45 nan nan nan nan nan nan nan nan nan nan nan nan nan nan nan nan nan nan nan nan nan nan nan nan nan nan nan nan nan nan nan nan nan nan nan nan nan nan nan nan nan nan nan nan nan
50 nan nan nan nan nan nan nan nan nan nan nan nan nan nan nan nan nan nan nan nan nan nan nan nan nan nan nan nan nan nan nan nan nan nan nan nan nan nan nan nan nan nan nan nan nan nan
nan nan nan nan nan nan nan nan nan nan nan nan nan nan nan nan nan nan nan nan nan nan nan nan nan nan nan nan nan nan nan nan nan nan nan nan nan nan nan nan nan nan nan nan nan nan nan
nan nan nan nan nan nan nan nan nan nan nan nan nan nan nan nan nan nan nan nan nan nan nan nan nan nan nan nan nan nan nan nan nan nan nan nan nan nan nan nan nan nan nan nan nan nan nan
nan nan nan nan nan nan nan nan nan nan nan nan nan nan nan nan nan nan nan nan nan nan nan nan nan nan nan nan nan nan nan nan nan nan nan nan nan nan nan nan nan nan nan nan nan nan nan
nan nan nan nan nan nan nan nan nan nan nan nan nan nan nan nan nan nan nan nan nan nan nan nan nan nan nan nan nan nan nan nan nan nan nan nan nan nan nan nan nan nan nan nan nan nan nan
nan nan nan nan nan nan nan nan nan nan nan nan nan nan nan nan nan nan nan nan nan nan nan nan nan nan nan nan nan nan nan nan nan nan nan nan nan nan nan nan nan nan nan nan nan nan nan
nan nan nan nan nan nan nan nan nan nan nan nan nan nan nan nan nan nan nan nan nan nan nan nan nan nan nan nan nan nan nan nan nan nan nan nan nan nan nan nan nan nan nan nan nan nan nan
nan nan nan nan nan nan nan nan nan nan nan nan nan nan nan nan nan nan nan nan nan nan nan nan nan nan nan nan nan nan nan nan nan nan nan nan nan nan nan nan nan nan nan nan nan nan nan
nan nan nan nan nan nan nan nan nan nan nan nan nan nan nan nan nan nan nan nan nan nan nan nan nan nan nan nan nan nan nan nan nan nan nan nan nan nan nan nan nan nan nan nan nan nan nan
nan nan nan nan nan nan nan nan nan nan nan nan nan nan nan nan nan nan nan nan nan nan nan nan nan nan nan nan nan nan nan nan nan nan nan nan nan nan nan nan nan nan nan nan nan nan nan
nan nan nan nan nan nan nan nan nan nan nan nan nan nan nan nan nan nan nan nan nan nan nan nan nan nan nan nan nan nan nan nan nan nan nan nan nan nan nan nan nan nan nan nan nan nan nan
nan nan nan nan nan nan nan nan nan nan nan nan nan nan nan nan nan nan nan nan nan nan nan nan nan nan nan nan nan nan nan nan nan nan nan nan nan nan nan nan nan nan nan nan nan nan nan
nan nan nan nan nan nan nan nan nan nan nan nan nan nan nan nan nan nan nan nan nan nan nan nan nan nan nan nan nan nan nan nan nan nan nan nan nan nan nan nan nan nan nan nan nan nan nan
nan nan nan nan nan nan nan nan nan nan nan nan nan nan nan nan nan nan nan nan nan nan nan nan nan nan nan nan nan nan nan nan nan nan nan nan nan nan nan nan nan nan nan nan nan nan nan
nan nan nan nan nan nan nan nan nan nan nan nan nan nan nan nan nan nan nan nan nan nan nan nan nan nan nan nan nan nan nan nan nan nan nan nan nan nan nan nan nan nan nan nan nan nan nan
nan nan nan nan nan nan nan nan nan nan nan nan nan nan nan nan nan nan nan nan nan nan nan nan nan nan nan nan nan nan nan nan nan nan nan nan nan nan nan nan nan nan nan nan nan nan nan
nan nan nan nan nan nan nan nan nan nan nan nan nan nan nan nan nan nan nan nan nan nan nan nan nan nan nan nan nan nan nan nan nan nan nan nan nan nan nan nan nan nan nan nan nan nan nan
nan nan nan nan nan nan nan nan nan nan nan nan nan nan nan nan nan nan nan nan nan nan nan nan nan nan nan nan nan nan nan nan nan nan nan nan nan nan nan nan nan nan nan nan nan nan nan
Wind_Direction
nan nan nan nan nan nan nan nan nan nan nan nan nan nan nan nan nan nan nan nan nan nan nan nan nan nan nan nan nan nan nan nan nan nan nan nan 197 nan nan nan nan nan nan nan nan nan nan
nan nan nan nan nan nan nan nan nan nan nan nan nan nan nan nan nan nan nan nan nan nan nan nan nan nan nan nan nan nan nan nan nan nan nan nan nan nan nan nan nan nan nan nan nan nan nan
nan nan nan nan nan nan nan nan nan nan nan nan nan nan nan nan nan nan nan nan nan nan nan nan nan nan nan nan nan nan nan nan nan 192 188 nan 187 197 nan nan nan nan nan nan nan nan nan
309 nan nan nan nan nan nan nan nan nan nan nan nan nan nan nan nan nan nan nan nan nan nan nan nan nan nan nan nan nan nan nan nan 209 188 181 185 nan nan nan nan nan nan nan nan nan nan
300 nan nan nan nan nan nan nan nan nan nan nan nan nan nan nan nan nan nan nan nan nan nan nan nan nan nan nan nan nan nan nan nan nan 191 184 199 nan nan nan nan nan nan nan nan nan nan
nan 291 nan nan nan nan nan nan nan nan nan nan nan nan nan nan nan nan nan nan nan nan nan nan nan nan nan nan nan nan nan nan nan nan 189 nan nan nan nan nan nan nan nan nan nan nan nan
nan nan nan nan nan nan nan nan nan nan nan nan nan nan nan nan nan nan nan nan nan nan nan nan nan nan nan nan nan nan nan nan nan nan nan nan nan nan nan nan nan nan nan nan nan nan nan
288 nan nan nan nan nan nan nan nan nan nan nan nan nan nan nan nan nan nan nan nan nan nan nan nan nan nan nan nan nan nan nan nan nan nan nan nan nan nan nan nan nan nan nan nan nan nan
nan nan nan nan nan nan nan nan nan nan nan nan nan nan nan nan nan nan nan nan nan nan nan nan nan nan nan nan nan nan nan nan nan nan nan nan nan nan nan nan nan nan nan nan nan nan nan
nan nan nan nan nan nan nan nan nan nan nan nan nan nan nan nan nan nan nan nan nan nan nan nan nan nan nan nan nan nan nan nan nan nan nan nan nan nan nan nan nan nan nan nan nan nan nan
nan 239 nan nan nan nan nan nan nan nan nan nan nan nan nan nan nan nan nan nan nan nan nan nan nan nan nan nan nan nan nan nan nan nan nan nan nan nan nan nan nan nan nan nan nan nan nan
249 nan nan nan nan nan nan nan nan nan nan nan nan nan nan nan nan nan nan nan nan nan nan nan nan nan nan nan nan nan nan nan nan nan nan nan nan nan nan nan nan nan nan nan nan nan nan
nan nan nan nan nan nan nan nan nan nan nan nan nan nan nan nan nan nan nan nan nan nan nan nan nan nan nan nan nan nan nan nan nan nan nan nan nan nan nan nan nan nan nan nan nan nan nan
nan nan nan nan nan nan nan nan nan nan nan nan nan nan nan nan nan nan nan nan nan nan nan nan nan nan nan nan nan nan nan nan nan nan nan nan nan nan nan nan nan nan nan nan nan nan nan
nan nan nan nan nan nan nan nan nan nan nan nan nan nan nan nan nan nan nan nan nan nan nan nan nan nan nan nan nan nan nan nan nan nan nan nan nan nan nan nan nan nan nan nan nan nan nan
nan nan nan nan nan nan nan nan nan nan nan nan nan nan nan nan nan nan nan nan nan nan nan nan nan nan nan nan nan nan nan nan nan nan nan nan nan nan nan nan nan nan nan nan nan nan nan
nan nan nan nan nan nan nan nan nan nan nan nan nan nan nan nan nan nan nan nan nan nan nan nan nan nan nan nan nan nan nan nan nan nan nan nan nan nan nan nan nan nan nan nan nan nan nan
nan nan nan nan nan nan nan nan nan nan nan nan nan nan nan nan nan nan nan nan nan nan nan nan nan nan nan nan nan nan nan nan nan nan nan nan nan nan nan nan nan nan nan nan nan nan nan
nan nan nan nan nan nan nan nan nan nan nan nan nan nan nan nan nan nan nan nan nan nan nan nan nan nan nan nan nan nan nan nan nan nan nan nan nan nan nan nan nan nan nan nan nan nan nan
nan nan nan nan nan nan nan nan nan nan nan nan nan nan nan nan nan nan nan nan nan nan nan nan nan nan nan nan nan nan nan nan nan nan nan nan nan nan nan nan nan nan nan nan nan nan nan
nan nan nan nan nan nan nan nan nan nan nan nan nan nan nan nan nan nan nan nan nan nan nan nan nan nan nan nan nan nan nan nan nan nan nan nan nan nan nan nan nan nan nan nan nan nan nan
nan nan nan nan nan nan nan nan nan nan nan nan nan nan nan nan nan nan nan nan nan nan nan nan nan nan nan nan nan nan nan nan nan nan nan nan nan nan nan nan nan nan nan nan nan nan nan
nan nan nan nan nan nan nan nan nan nan nan nan nan nan nan nan nan nan nan nan nan nan nan nan nan nan nan nan nan nan nan nan nan nan nan nan nan nan nan nan nan nan nan nan nan nan nan
nan nan nan nan nan nan nan nan nan nan nan nan nan nan nan nan nan nan nan nan nan nan nan nan nan nan nan nan nan nan nan nan nan nan nan nan nan nan nan nan nan nan nan nan nan nan nan
nan nan nan nan nan nan nan nan nan nan nan nan nan nan nan nan nan nan nan nan nan nan nan nan nan nan nan nan nan nan nan nan nan nan nan nan nan nan nan nan nan nan nan nan nan nan nan
nan nan nan nan nan nan nan nan nan nan nan nan nan nan nan nan nan nan nan nan nan nan nan nan nan nan nan nan nan nan nan nan nan nan nan nan nan nan nan nan nan nan nan nan nan nan nan
nan nan nan nan nan nan nan nan nan nan nan nan nan nan nan nan nan nan nan nan nan nan nan nan nan nan nan nan nan nan nan nan nan nan nan nan nan nan nan nan nan nan nan nan nan nan nan
nan nan nan nan nan nan nan nan nan nan nan nan nan nan nan nan nan nan nan nan nan nan nan nan nan nan nan nan nan nan nan nan nan nan nan nan nan nan nan nan nan nan nan nan nan nan nan
nan nan nan nan nan nan nan nan nan nan nan nan nan nan nan nan nan nan nan nan nan nan nan nan nan nan nan nan nan nan nan nan nan nan nan nan nan nan nan nan nan nan nan nan nan nan nan